This is the latest recevied weather packets stored in our database for station/object DW9280. If no packets are shown the sender has not sent any weather packets the latest 10 day(s).
| Time | Temp. | Humidity | Pressure | Rain* | Wind** | Luminosity | Snow |
|---|---|---|---|---|---|---|---|
| 1777738150 | 21.67° C | 61% | 1015.2 hPa | 0 mm | - | 343 W/m² | - |
| 1777737728 | 21.67° C | 60% | 1015.1 hPa | 0 mm | - | 346 W/m² | - |
| 1777737552 | 21.67° C | 61% | 1015.2 hPa | 0 mm | - | 366 W/m² | - |
| 1777737127 | 21.67° C | 61% | 1015.3 hPa | 0 mm | - | 373 W/m² | - |
| 1777736826 | 22.22° C | 60% | 1015.3 hPa | 0 mm | - | 345 W/m² | - |
| 1777736527 | 22.78° C | 60% | 1015.4 hPa | 0 mm | - | 403 W/m² | - |
| 1777736229 | 22.78° C | 59% | 1015.4 hPa | 0 mm | - | 396 W/m² | - |
| 1777735926 | 22.78° C | 58% | 1015.4 hPa | 0 mm | - | 431 W/m² | - |
| 1777735627 | 23.33° C | 55% | 1015.4 hPa | 0 mm | - | 441 W/m² | - |
| 1777735446 | 23.33° C | 55% | 1015.4 hPa | 0 mm | - | 452 W/m² | - |
| 1777735151 | 23.33° C | 55% | 1015.4 hPa | 0 mm | - | 478 W/m² | - |
| 1777734724 | 23.33° C | 56% | 1015.5 hPa | 0 mm | - | 503 W/m² | - |
| 1777734425 | 23.33° C | 58% | 1015.6 hPa | 0 mm | - | 526 W/m² | - |
| 1777734126 | 23.33° C | 57% | 1015.7 hPa | 0 mm | - | 536 W/m² | - |
| 1777733823 | 23.33° C | 58% | 1015.8 hPa | 0 mm | - | 534 W/m² | - |
| 1777733524 | 23.33° C | 56% | 1015.8 hPa | 0 mm | - | 524 W/m² | - |
| 1777733224 | 23.33° C | 57% | 1015.9 hPa | 0 mm | - | 533 W/m² | - |
| 1777732925 | 23.33° C | 58% | 1015.9 hPa | 0 mm | - | 585 W/m² | - |
| 1777732624 | 23.33° C | 59% | 1015.9 hPa | 0 mm | - | 596 W/m² | - |
| 1777732444 | 23.33° C | 59% | 1015.9 hPa | 0 mm | - | 617 W/m² | - |
| 1777732022 | 23.33° C | 59% | 1016 hPa | 0 mm | - | 603 W/m² | - |
| 1777731723 | 23.33° C | 58% | 1016.1 hPa | 0 mm | - | 592 W/m² | - |
| 1777731424 | 23.33° C | 60% | 1016.1 hPa | 0 mm | - | 570 W/m² | - |
| 1777731123 | 23.33° C | 60% | 1016.2 hPa | 0 mm | - | 578 W/m² | - |
| 1777730522 | 22.78° C | 59% | 1016.4 hPa | 0 mm | - | 608 W/m² | - |
* Rain latest hour (hover to see other rain measurements)
** Current wind speed in m/s (hover to see current wind gust speed)